User: anonymous   Login
Location: Fisheating Creek Campgrounds
(26.9333°N, 81.3167°W)
Time: 19:55:38
(UTC-04:00)
Language:

NATO 3D Rocket - Orbit

View from above orbital plane
View from above orbital plane
View from above satellite
View from above satellite

Ground track
Ground track

The orbit data is extracted from the following two-line orbital elements,

1 15392U 84115B   15213.21709829  .00000124  00000-0 -41202-4 0  9990
2 15392 021.4917 205.6040 1034666 178.2761 304.7256 12.45502197398420
Epoch (UTC): 01 August 2015 05:12:37
Eccentricity: 0.1034666
inclination: 21.4917°
perigee height: 670 km
apogee height: 2297 km
right ascension of ascending node: 205.6040°
argument of perigee: 178.2761°
revolutions per day: 12.45502197
mean anomaly at epoch: 304.7256°
orbit number at epoch: 39842

The dashed part of the orbit path shows where the satellite is in the earth's shadow,  

DLR